Regional Weather Roundup
Issued by NWS Kansas City/Pleasant Hill, MO

Home | Current Version | Previous Version | Graphics & Text | Print | Product List | Glossary Off
Versions: 1 2 3 4 5 6 7 8 9 10 11 12 13 14 15 16 17 18 19 20 21 22 23 24 25 26 27 28 29 30 31 32 33 34 35 36 37 38 39 40 41 42 43 44 45 46 47 48 49 50

000
ASUS43 KEAX 091910
RWREAX

WEATHER ROUNDUP FOR EASTERN KANSAS AND NORTHWEST MISSOURI
NATIONAL WEATHER SERVICE KANSAS CITY/PLEASANT HILL MO
100 PM CST TUE FEB 09 2016

KSZ040-057-103>105-MOZ028-029-037-043-092000-
...KANSAS CITY METROPOLITAN AREA...

CITY           SKY/WX    TMP DP  RH WIND       PRES   REMARKS
K.C. INTL      MOSUNNY   27   9  46 NW22G32   30.19S WCI  13
K.C. DOWNTOWN  MOSUNNY   29   9  43 NW16G25   30.21R WCI  17
LEES SUMMIT    MOSUNNY   27   9  46 NW21G30   30.19S WCI  13
OLATHE - IXD   SUNNY     30   7  37 N22G32    30.21S WCI  17
OLATHE - OJC   SUNNY     28   6  39 NW24G35   30.19F WCI  14
LAWRENCE       SUNNY     31   5  33 NW24G39   30.23S WCI  17

$$

MOZ001>008-011>017-020>025-030>033-038>040-044>046-053-054-092000-
...NORTHERN AND CENTRAL MISSOURI...

CITY           SKY/WX    TMP DP  RH WIND       PRES   REMARKS
ST. JOSEPH     SUNNY     25   7  46 NW26      30.23S WCI   9
MOSBY          PTCLDY    27  10  50 NW20G25   30.20S WCI  13
WARRENSBURG    SUNNY     28  10  47 W16G24    30.18S WCI  17
WHITEMAN AFB   MOSUNNY   27   9  47 NW16      30.14F WCI  15
CLINTON          N/A     30  12  47 NW14      30.17F WCI  20
SEDALIA        SUNNY     26  10  50 NW21G28   30.15S WCI  12
WARSAW         NOT AVBL
CHILLICOTHE      N/A     24  10  55 NW14G26   30.17F WCI  12
KIRKSVILLE     FLURRIES  23   6  48 NW16G30   30.08F WCI  10

$$

MOZ041-047>049-056>058-063>065-088>090-097-092000-
...EASTERN AND SOUTHERN MISSOURI...

CITY           SKY/WX    TMP DP  RH WIND       PRES   REMARKS
ST. LOUIS INTL FLURRIES  22  11  62 W18G25    30.02F WCI   7
SPIRIT OF STL  CLOUDY    22  11  62 NW18G25   30.04S WCI   7
COLUMBIA       CLOUDY    26  10  50 NW23G30   30.07F WCI  11
JEFFERSON CITY CLOUDY    24  10  55 NW22G31   30.11F WCI   9
ROLLA          CLOUDY    22  12  65 W16G24    30.04S WCI   8
OSAGE BEACH    MOSUNNY   28   9  43 W13G23    30.10F WCI  18
SPRINGFIELD    MOSUNNY   30   9  41 NW21G35   30.11S WCI  17
JOPLIN         SUNNY     35   8  32 NW17G28   30.19F WCI  25
WEST PLAINS    CLOUDY    28  10  46 NW18G28   30.05S WCI  15

$$

IAZ060-094-KSZ022-034>040-054-083-096-NEZ052-066-093-092000-
...KANSAS...SOUTHEAST NEBRASKA AND IOWA...

CITY           SKY/WX    TMP DP  RH WIND       PRES   REMARKS
TOPEKA         SUNNY     32   3  29 NW24G32   30.24F WCI  19
MANHATTAN      SUNNY     32   6  33 N10G30    30.29F WCI  24
EMPORIA        SUNNY     35   6  29 N23G37    30.22F WCI  23
CHANUTE        SUNNY     37   5  26 NW17G30   30.22F WCI  27
WICHITA        PTSUNNY   40  14  34 NW24      30.28S WCI  29
OMAHA          MOSUNNY   20   8  60 N17       30.27F WCI   5
LINCOLN        MOSUNNY   23   9  55 N16       30.31F WCI  10
FALLS CITY     SUNNY     24   6  46 N18G29    30.25F WCI  10
LAMONI         MOSUNNY   19   7  59 NW22G32   30.13F WCI   2
DES MOINES     MOSUNNY   16   5  62 NW26      30.14F WCI  -3

$$




USA.gov is the U.S. government's official web portal to all federal, state and local government web resources and services.